Wind_Speed
15 25 26 23 20 16 14 13 15 13 13 14 14 12 12 11 12 12 11 16 17 18 17 17 15 19 18 18 24 23 24 24 28 22 32 15 22 10 25 32 33 25 29
15 19 27 23 19 17 15 13 13 15 13 11 12 11 11 14 13 10 10 13 12 14 14 14 18 16 16 19 22 21 19 17 22 19 16 5 9 17 46 18 24 24 35
19 15 21 26 21 18 15 15 12 14 13 13 12 11 14 10 10 10 11 11 12 9 10 14 14 15 16 20 21 18 18 15 15 19 10 5 5 25 5 32 16 37 32
19 18 21 25 26 19 16 16 13 12 13 11 12 13 12 12 10 9 10 9 11 11 13 11 12 16 16 18 18 16 16 16 13 16 12 13 16 4 9 11 35 24 33
24 21 21 29 28 24 20 18 17 14 11 12 11 11 12 11 8 8 8 9 10 11 11 11 13 17 14 15 15 16 14 14 13 13 14 15 15 14 9 14 21 31 28
22 20 29 30 33 29 22 20 17 15 12 11 10 11 11 9 8 7 8 9 9 10 13 13 16 16 13 15 16 16 14 12 13 15 15 15 12 14 13 11 19 23 33
23 22 21 26 30 33 28 23 21 18 13 11 10 9 10 8 7 6 7 7 9 11 10 13 15 17 14 12 16 14 15 14 18 17 15 15 17 19 19 21 22 16 34
22 23 22 28 31 32 30 23 25 21 15 11 9 7 7 6 6 5 6 7 7 8 10 13 16 13 13 15 15 14 14 20 16 18 20 17 18 20 20 21 22 16 16
23 23 22 30 31 31 31 24 27 22 17 13 10 8 6 5 4 4 4 5 5 6 9 11 9 10 13 15 15 15 17 14 23 23 19 19 19 20 20 22 21 18 15
20 19 18 29 30 33 33 27 26 22 17 14 10 8 7 5 4 3 4 3 4 6 7 7 8 14 13 15 14 14 11 19 23 20 20 20 21 21 20 22 22 22 24
17 17 17 28 30 34 35 29 25 25 19 14 10 8 7 6 5 4 3 3 5 5 5 4 8 13 11 13 13 9 13 21 24 22 20 23 22 17 22 21 21 24 24
16 15 18 29 30 30 33 31 27 24 19 13 10 8 7 6 5 4 3 4 5 5 4 8 10 10 14 10 7 10 17 23 24 23 23 25 25 19 21 22 21 20 26
15 15 15 21 26 28 29 30 26 23 16 12 10 9 8 6 5 4 2 3 3 5 5 8 3 7 12 6 5 13 19 25 24 24 25 26 20 22 26 20 19 21 24
18 18 16 16 26 28 29 30 28 25 19 14 12 11 8 7 5 3 2 2 3 4 6 6 0 11 8 2 9 14 20 24 23 24 23 23 25 27 26 21 18 23 27
17 19 18 17 24 27 28 31 28 23 17 14 12 12 8 6 5 3 2 1 3 4 6 4 5 10 3 5 9 14 20 23 24 23 22 24 25 24 26 19 25 26 28
19 19 18 17 26 30 29 28 25 21 18 15 13 11 8 6 5 3 3 4 3 4 6 5 8 10 5 7 10 15 20 23 24 22 23 26 24 26 23 25 28 29 31
21 20 21 20 28 29 30 27 27 24 19 17 14 12 9 7 6 4 4 4 3 4 5 5 9 8 7 9 13 16 22 22 23 24 27 28 27 28 28 29 30 34 30
19 20 19 27 28 28 27 31 29 22 19 17 15 11 9 6 5 5 5 3 4 5 6 8 9 9 10 13 16 17 20 20 22 25 26 29 28 26 32 32 35 29 33
18 24 33 33 30 29 32 32 27 22 19 16 14 12 9 7 6 6 3 4 4 7 8 10 11 11 12 15 18 20 20 20 22 23 26 26 26 29 30 32 29 28 28
28 29 31 33 34 32 33 30 26 23 21 15 13 10 9 7 7 5 3 6 7 9 8 10 11 12 15 16 17 20 21 21 22 23 26 24 28 30 29 31 26 27 27
34 35 34 32 31 32 32 25 26 23 20 16 13 11 9 7 7 5 7 7 8 9 10 10 10 13 15 16 17 21 22 22 22 24 25 26 28 29 29 28 26 29 32
27 33 33 29 28 29 30 25 25 22 17 15 13 12 10 7 8 7 8 7 5 7 9 9 11 14 14 15 18 21 20 23 23 23 23 27 27 28 28 27 29 29 30
24 27 30 29 25 27 27 27 25 21 18 16 15 13 11 7 7 7 6 5 4 5 7 6 9 13 14 17 21 23 21 21 23 21 25 24 25 25 25 26 28 28 27
22 28 27 22 20 22 25 27 23 21 19 17 14 10 9 7 7 6 5 4 3 3 3 3 7 10 12 19 23 24 21 22 20 22 25 23 22 23 24 24 26 27 27
24 24 22 21 21 27 28 24 23 20 16 14 12 11 9 8 6 4 3 2 2 3 3 3 6 8 11 17 20 20 21 22 22 23 24 22 22 24 25 25 26 28 29
23 22 22 22 23 25 22 19 18 17 17 18 14 13 11 8 6 6 5 2 2 4 4 4 5 3 9 16 20 18 19 20 21 23 20 20 21 22 24 24 26 27 29
Wind_Direction
157 156 148 148 146 149 154 147 137 132 131 129 116 116 97 91 73 63 48 29 25 26 23 29 25 19 22 14 9 11 5 4 357 347 339 335 338 303 341 342 345 352 347
160 148 148 149 153 157 151 145 136 121 126 123 122 115 111 101 85 71 40 39 41 34 50 38 23 28 25 17 16 18 3 2 2 357 327 336 334 337 325 338 341 336 343
163 153 148 153 158 158 161 149 147 139 121 128 128 126 118 97 70 57 37 51 41 48 30 17 25 25 16 13 11 14 4 356 359 5 350 339 333 326 347 323 331 329 332
163 156 155 154 157 162 163 154 147 136 113 128 118 109 104 91 75 63 51 59 42 30 21 32 24 19 16 16 23 12 0 353 354 356 357 336 321 324 321 333 320 329 325
163 162 161 157 162 160 154 148 140 130 129 126 121 122 106 91 81 57 66 39 49 36 32 17 8 8 18 10 7 2 357 353 351 354 342 332 322 309 305 309 318 316 319
162 159 160 159 157 160 158 154 150 140 135 130 123 114 105 101 88 74 55 41 41 29 14 9 6 12 14 6 5 356 354 354 356 346 338 331 322 314 311 303 312 310 316
160 162 162 158 155 158 159 163 158 148 147 140 130 115 106 102 86 76 49 40 40 32 23 9 6 1 9 13 9 359 359 6 349 342 341 335 322 319 314 306 305 307 312
164 166 163 155 155 156 162 167 160 152 153 149 133 120 116 108 89 57 57 58 43 31 9 5 359 15 11 5 11 4 1 356 2 352 341 329 321 314 310 308 308 308 307
166 163 158 154 154 156 163 171 159 154 155 151 143 131 124 114 91 87 88 58 30 22 4 4 22 19 5 7 5 8 2 7 349 344 333 325 319 317 313 311 311 306 312
155 157 154 154 157 159 164 161 156 156 156 154 148 143 133 124 115 124 92 59 21 29 9 14 16 2 9 3 359 359 9 349 344 337 329 323 318 317 317 313 306 306 300
155 155 153 153 152 155 158 155 159 152 147 155 159 150 144 136 138 121 87 29 48 10 3 5 358 1 3 0 355 16 355 348 342 335 327 324 318 313 323 317 318 311 307
156 146 148 149 150 151 152 152 150 149 148 150 157 158 153 154 148 129 94 43 36 7 340 334 344 1 360 7 14 1 352 350 340 339 335 328 319 315 323 316 315 319 324
153 144 144 150 149 150 151 154 154 152 158 167 168 165 161 157 149 134 105 52 20 353 345 333 350 6 10 351 344 354 354 354 351 347 341 329 338 330 321 315 320 324 322
153 150 152 152 150 150 150 151 144 145 146 152 167 167 164 162 166 138 30 61 20 353 349 348 86 14 2 338 2 359 355 358 353 351 346 340 338 329 327 327 331 328 322
154 156 157 155 146 144 142 140 145 151 153 165 168 162 167 164 158 126 72 83 34 20 357 340 25 20 28 30 16 1 360 360 351 349 343 340 334 330 331 330 331 327 322
163 162 154 147 148 146 145 145 151 157 158 163 161 161 166 159 151 141 123 80 42 21 3 56 40 19 77 42 17 3 4 356 352 345 342 340 337 335 330 331 324 321 318
167 158 159 154 150 150 148 148 151 153 159 163 165 166 161 155 143 128 97 65 67 19 41 46 37 42 71 36 16 9 2 355 348 345 342 340 336 333 335 327 321 319 319
177 160 154 151 152 148 142 143 150 151 156 158 161 159 158 146 140 120 95 68 51 31 46 58 44 43 54 28 14 7 2 352 345 343 342 339 336 338 331 325 314 324 323
142 151 154 145 146 144 141 140 146 151 153 155 151 151 153 146 133 105 92 82 55 63 65 54 42 43 25 16 7 3 358 347 342 343 341 340 338 333 330 331 333 327 324
136 136 138 136 133 140 141 139 144 153 153 150 150 150 153 144 123 117 90 86 71 72 61 48 38 35 19 9 2 358 352 343 343 343 339 340 338 333 337 339 338 325 328
130 130 135 135 136 137 139 139 146 146 148 149 153 147 140 136 135 114 103 90 78 66 51 40 25 8 9 7 359 353 350 345 345 338 334 335 335 338 341 340 336 334 337
124 127 125 124 131 138 141 132 132 142 146 155 155 145 147 112 125 105 97 80 69 54 37 20 4 4 6 4 357 353 351 347 341 333 331 333 338 342 343 342 340 341 339
117 117 120 125 133 141 141 129 139 144 149 149 138 133 142 120 136 97 97 86 69 53 22 16 5 358 359 357 357 352 347 344 338 337 338 340 342 345 343 345 345 344 341
118 124 125 126 129 143 144 144 148 153 155 138 134 144 150 123 136 113 116 109 69 32 12 341 331 345 355 357 355 344 344 345 346 350 352 348 346 346 344 346 348 346 341
126 127 126 120 110 123 130 143 152 158 153 154 154 149 144 150 137 136 137 121 67 16 318 293 320 338 0 354 346 341 346 350 354 352 354 348 349 349 348 348 349 347 343
130 123 123 120 117 124 132 141 154 163 154 159 164 163 166 157 148 123 117 113 18 344 288 297 304 6 354 348 345 342 350 351 354 358 350 346 345 348 343 345 346 345 342
Height
787 792 798 803 806 810 813 814 814 815 816 817 819 822 824 825 826 826 826 825 825 826 825 824 823 822 820 818 816 815 812 808 805 797 790 784 780 777 776 775 772 771 770
783 789 795 802 807 811 813 814 814 814 815 817 819 821 824 825 826 827 827 827 827 827 826 825 824 823 822 820 817 817 816 814 811 809 800 789 781 775 776 774 773 769 768
778 785 792 798 804 810 813 813 814 815 815 817 819 820 823 824 826 827 828 829 828 827 827 826 824 824 823 822 821 819 820 816 814 814 812 804 796 787 773 774 772 769 768
770 778 785 792 799 806 811 813 814 815 816 817 818 819 821 824 826 828 829 829 828 828 827 826 826 825 823 821 820 820 820 819 815 814 815 815 811 801 780 773 773 771 768
759 770 778 785 793 801 807 811 813 815 816 817 819 820 821 824 826 827 828 828 828 827 826 825 826 825 825 824 821 821 819 819 817 814 814 813 811 807 801 777 772 772 769
754 763 772 780 787 795 802 807 811 814 815 817 818 819 820 822 823 825 825 826 827 827 827 826 826 825 823 822 822 823 821 818 816 815 814 812 810 806 802 791 778 771 763
748 757 765 774 782 789 796 802 807 811 814 816 817 818 819 820 822 823 824 825 826 826 826 825 825 825 824 821 819 821 820 817 816 814 813 811 809 806 802 796 782 771 763
740 748 757 766 775 783 791 798 804 809 812 816 817 817 819 820 822 823 825 825 825 826 826 824 826 826 824 824 819 819 818 816 815 813 811 809 807 804 800 796 789 769 760
733 742 753 762 771 780 789 796 802 808 811 814 815 816 818 819 821 823 824 823 824 825 824 825 825 824 822 821 819 817 816 815 814 811 809 806 804 801 797 793 789 782 763
733 742 751 760 768 776 785 793 799 804 809 812 814 816 817 818 820 823 823 822 822 822 824 824 823 824 821 819 818 816 815 814 811 808 805 803 800 797 793 789 785 781 774
731 739 749 758 765 772 779 788 795 801 807 811 814 815 817 818 820 822 821 822 821 822 822 821 820 820 817 816 816 815 814 812 809 805 802 799 796 792 789 785 781 777 772
728 738 747 755 763 771 777 784 791 798 803 809 813 815 816 818 819 820 821 821 820 822 823 821 818 819 816 814 815 814 813 811 806 802 798 794 791 788 785 780 776 773 770
728 736 746 752 760 769 776 782 787 794 801 806 812 815 817 817 819 819 819 819 819 820 820 820 817 818 815 814 814 813 811 808 803 799 795 792 788 785 780 775 772 769 765
721 732 743 750 756 765 772 780 786 793 799 806 811 814 816 817 819 818 819 818 818 819 820 818 817 815 813 813 812 811 809 805 800 797 794 791 787 782 777 772 769 766 761
721 728 738 745 754 762 771 777 784 791 797 804 808 812 815 815 817 817 818 818 817 817 819 817 816 813 812 812 811 809 806 801 798 795 792 788 784 780 776 771 766 762 756
716 725 735 743 750 757 766 774 781 788 794 801 806 810 813 814 815 815 815 815 816 816 816 817 815 812 811 811 809 807 803 799 796 792 789 785 780 776 772 769 765 761 753
707 722 729 739 747 755 762 771 779 785 792 799 804 807 809 810 812 813 814 814 814 814 816 815 814 811 811 810 808 804 801 797 794 790 785 781 777 773 768 763 758 752 748
699 712 725 736 745 753 761 769 777 785 791 798 802 805 807 809 810 810 811 814 813 813 814 814 813 812 810 808 806 802 799 796 792 788 783 779 774 770 765 758 751 746 740
694 705 719 728 742 751 760 767 776 784 790 796 799 801 805 807 808 808 811 812 812 812 813 812 811 810 809 807 804 801 797 794 790 786 781 777 773 768 762 754 747 741 735
698 710 720 730 740 752 758 766 773 782 788 796 799 800 803 806 806 808 809 810 810 811 811 811 810 809 808 805 803 800 796 792 787 784 779 775 770 764 758 753 746 738 731
698 712 725 733 743 750 757 767 772 780 788 792 798 799 801 804 805 807 808 808 808 810 810 810 809 809 807 805 802 799 795 790 786 782 777 772 767 762 757 751 745 738 730
708 712 721 735 746 754 759 764 771 780 787 794 797 798 800 803 805 806 806 807 808 808 808 809 809 808 805 803 801 797 793 790 785 780 775 771 765 760 755 749 743 736 729
719 723 727 737 747 755 758 764 774 780 788 793 795 796 800 803 804 804 805 806 807 807 808 808 807 806 804 801 798 794 791 787 783 779 775 769 765 760 753 747 741 735 727
725 730 736 744 751 757 760 767 775 780 788 791 794 797 800 803 803 804 804 805 805 806 807 807 806 804 801 798 794 791 788 784 780 776 772 768 764 758 753 746 740 735 728
727 734 740 746 753 757 763 772 776 781 787 791 795 798 800 801 801 802 803 803 804 804 804 803 802 800 799 796 794 790 786 782 779 774 770 766 761 755 750 745 740 734 727
731 737 744 750 756 761 768 775 777 781 786 791 793 796 799 799 799 800 801 801 802 802 801 801 799 798 797 795 792 788 784 781 777 773 770 766 761 756 751 745 739 734 727